THOR ABLESTAR DEB, 467

Orbit data source: Space-Track

THOR ABLESTAR DEB, 467 is space debris in LEO originally from a launch on Thu, 29 Jun 1961 UTC launched from the Air Force Eastern Test Range (AFETR). Debris objects in space refer to the collection of defunct objects orbiting the Earth. Examples of debris include non-operational satellites, rocket bodies, and fragments generated from explosions, collisions, or faulty payload assembly.

Loading next visibility...
Identifier
467, 1961-015FD
Orbit
LEO
Country
Flag of USUS
Related business
Manufacturer
Unknown
Mission
Spacecraft
Bus & Motor
Unknown
Mass
Unknown
Launch date (UTC)
1961-06-29 (65 years ago)
Launch vehicle
Unknown
Launch site
Air Force Eastern Test Range (AFETR)
Object type
Payload
Rocket body
Debris
Shape & HBR
Unknown shape, 0.1 m
Radar Cross Section
Small (<0.1 m²)

Expand to show TLE details & history
Last TLE update: 11 hours ago

TLE from 11 hours ago
0 THOR ABLESTAR DEB
1 00467U 61015FD  26102.11040411  .00001038  00000-0  12793-2 0  9999
2 00467  66.5563 242.0426 0244364 359.2120   0.8519 13.57301250271971
Epoch: 2026-04-12T02:38Z
TLE epoch observation values (Epoch: 2026-04-12T02:38:58.915Z)
Latitude
-0.00006°
Longitude
1.97703°
Altitude
866.136 km
Speed
7.51 km/s
True Right ascension
16h 08m 10s
True Declination
0° 00' 00"
Sunlit
Object was in full shadow at epoch
Visualization orbit readout
Latitude
Unknown
Longitude
Unknown
Altitude
Unknown
Speed
Unknown
Apparent Right ascension
Unknown
Apparent Declination
Unknown
Sunlit
N/A
Visualization observer readout
Local Sidereal Time
20:13:17
Azimuth
Unknown
Elevation
Unknown
Doppler factor
Unknown
Orbital elements
Apogee altitude
1,225.331 km
Perigee altitude
862.592 km
Semi-major axis
7,422.099 km
Eccentricity
0.02444
Inclination
66.5563°
RAAN
242.0426°
Arg. of periapsis
359.212°
True anomaly
0.89484°
Mean anomaly
0.8519°
Eccentric anomaly
0.87324°
Mean motion
3.39432 °/min
Orbital period
106.06 mins
BSTAR
0.0012793
Loading maneuver chart data...
Computing Atmospheric mass density...

Documentation

Showing up to 5 results
|